Wind_Speed
16 13 14 8 10 6 9 6 9 6 5 8 8 7 8 8 8 6 7 7 7 8 10 12 14 16 17 18 19 18 17 15 15 16 18 19 19 20 20 21 22 23 24
10 11 10 7 9 6 7 9 9 7 10 4 6 7 7 6 6 8 7 7 7 10 12 15 17 17 17 18 17 16 15 16 16 18 19 20 21 23 23 23 23 22 23
11 12 7 10 9 8 5 8 9 9 8 8 4 9 6 5 6 6 7 8 9 11 13 17 17 16 16 16 15 15 16 17 18 19 20 21 23 24 26 26 26 25 24
8 9 7 7 6 10 6 6 4 9 6 5 7 4 5 5 6 6 8 8 9 14 15 15 15 15 15 14 15 15 17 18 20 21 22 23 24 25 26 27 27 27 25
5 8 7 8 3 7 6 3 3 6 8 9 11 8 9 6 14 4 7 8 10 14 17 15 14 14 13 14 15 17 19 21 22 23 24 25 26 28 28 29 29 29 27
3 6 4 7 5 7 7 3 8 6 7 4 10 4 3 2 4 3 5 9 11 15 15 12 12 13 12 13 16 19 21 20 21 23 25 27 29 31 32 32 31 29 28
3 4 3 4 3 4 7 8 7 9 8 11 11 6 8 10 8 5 5 8 7 13 12 12 11 10 11 13 16 20 21 20 21 23 26 28 30 32 33 33 31 28 26
3 5 4 4 2 6 3 8 8 11 3 6 15 9 4 10 3 3 3 6 12 12 12 10 9 8 10 11 16 20 22 22 23 25 28 30 31 33 33 33 30 27 26
2 3 5 5 7 5 3 6 10 12 10 4 19 16 10 10 5 5 3 5 9 11 12 9 7 7 8 11 14 20 21 22 24 27 30 32 32 32 34 32 28 25 23
3 3 1 3 4 8 8 7 8 10 7 7 6 3 13 14 15 6 8 5 9 7 9 8 5 4 6 10 13 17 20 23 25 28 31 33 31 31 33 33 27 24 22
3 2 0 1 1 2 4 8 8 11 10 13 2 6 4 11 14 11 4 2 5 6 8 6 4 1 4 8 11 15 19 23 26 27 29 30 30 30 33 33 28 25 24
1 2 0 0 0 1 5 4 5 9 13 12 13 12 6 8 11 5 1 8 4 4 3 6 5 2 3 7 9 13 18 21 23 25 26 28 29 30 34 35 32 27 25
4 1 1 2 2 2 2 2 5 4 7 9 8 8 7 6 12 16 7 8 8 5 3 5 7 5 6 7 10 13 15 18 22 24 26 28 30 30 33 36 34 29 26
6 9 4 3 2 2 1 1 3 5 7 8 6 13 11 6 6 9 12 13 5 3 6 9 9 9 9 9 9 13 17 18 21 24 26 27 29 30 32 35 35 30 27
7 10 8 4 3 3 4 2 2 4 4 6 6 8 12 12 8 7 7 18 14 12 5 15 11 13 11 11 12 14 16 18 21 21 24 26 29 29 30 33 36 32 28
15 12 10 6 4 4 5 5 5 4 4 5 6 8 12 11 12 16 11 10 16 22 18 9 9 17 12 13 15 16 18 19 21 22 24 26 28 29 30 31 35 34 29
14 16 14 9 8 7 6 7 6 7 5 5 6 6 9 12 13 12 12 13 15 15 15 14 18 16 15 16 16 18 19 20 24 24 26 26 27 28 29 30 33 34 31
15 14 16 13 12 11 10 8 8 8 8 7 6 7 6 9 11 13 15 18 19 23 22 20 19 19 20 20 19 19 20 20 22 25 25 26 27 26 27 28 30 32 31
16 16 16 15 15 15 15 12 12 11 10 10 10 9 8 8 9 12 15 18 19 22 24 24 22 21 22 23 23 21 21 22 22 26 28 28 27 28 24 23 27 30 30
19 19 19 18 18 16 17 17 16 15 15 14 13 13 11 10 9 9 12 16 18 21 22 23 23 22 22 22 23 23 22 23 25 25 26 27 27 25 26 22 25 27 29
22 22 22 22 22 21 20 20 18 18 19 18 17 16 15 12 11 12 11 12 14 17 19 21 22 23 22 22 21 23 25 26 26 27 27 25 26 26 24 24 21 25 28
27 27 26 26 26 25 24 22 21 20 19 19 19 19 18 17 15 14 14 15 14 15 16 17 18 20 21 22 23 26 26 27 27 26 29 24 24 23 25 22 20 23 26
31 27 29 30 30 29 28 27 25 25 25 24 22 22 22 20 19 19 18 18 19 19 19 20 20 21 23 23 26 27 28 28 27 24 25 26 25 24 22 25 19 21 24
34 36 32 31 31 30 29 29 29 29 30 29 28 27 26 25 24 24 22 23 22 21 21 23 23 22 24 24 25 27 27 26 24 23 24 25 25 25 25 26 24 19 23
38 38 34 31 31 31 31 30 30 33 35 34 32 31 31 30 27 26 30 28 27 26 26 25 25 25 25 26 27 29 27 27 26 24 24 27 25 25 25 27 25 24 20
34 39 39 39 37 33 31 32 32 34 37 37 35 36 35 34 33 32 33 32 33 28 31 30 32 30 29 28 29 31 29 30 28 26 23 25 28 27 26 24 28 27 24
Wind_Direction
118 118 112 122 109 114 100 130 81 101 53 77 87 98 95 90 92 71 69 66 71 76 77 82 86 91 89 85 81 76 69 60 51 43 36 29 23 23 23 22 20 17 14
114 114 95 109 114 144 96 103 59 71 93 10 82 93 89 90 79 94 89 73 69 82 92 100 100 96 93 86 79 71 62 52 42 35 28 24 22 21 21 22 19 15 14
124 116 135 45 147 116 85 89 56 79 60 58 47 70 46 67 71 68 52 73 88 94 104 109 103 99 90 82 72 60 49 40 33 28 27 25 27 26 25 23 20 15 12
139 136 113 104 178 100 98 119 95 92 94 71 85 99 64 50 62 71 77 87 98 110 112 108 105 98 86 75 62 50 40 30 27 29 30 30 28 25 22 17 17 16 12
143 140 143 160 136 134 98 68 106 94 78 91 54 30 56 12 61 340 86 96 106 122 122 116 109 94 80 65 52 39 30 27 33 34 30 27 23 20 17 15 10 10 9
174 155 189 144 160 76 130 206 159 72 63 103 86 357 111 52 77 47 45 84 117 128 121 118 108 95 76 57 43 32 27 28 30 28 24 20 16 12 10 7 5 4 3
174 164 195 154 130 134 85 159 115 93 77 103 100 56 3 44 44 85 120 130 137 130 126 122 109 89 72 49 38 32 28 26 22 19 15 13 11 9 7 4 3 2 5
85 184 187 190 185 136 181 122 107 102 71 134 121 131 154 57 61 162 117 129 150 140 136 129 113 91 64 43 33 30 28 24 19 16 12 10 10 9 6 5 5 9 7
122 147 169 207 172 152 285 172 128 136 121 98 141 135 133 121 120 7 96 156 153 141 142 133 114 85 57 37 28 30 25 23 19 16 12 9 9 8 6 4 5 8 4
118 108 173 204 179 168 165 209 167 143 147 108 91 108 155 146 119 90 348 148 145 136 150 139 133 92 44 29 23 19 19 18 14 13 10 8 6 7 7 5 2 5 7
145 117 273 304 240 171 198 214 183 162 156 129 14 135 53 135 138 99 102 48 159 161 168 172 156 99 21 14 10 10 13 9 8 7 5 4 2 7 8 7 4 2 2
207 140 168 221 137 176 242 215 199 191 192 172 173 152 139 238 99 146 58 133 169 167 175 202 205 237 326 345 0 3 6 3 360 0 359 1 359 4 7 8 6 2 359
0 224 195 218 197 48 -0 252 223 225 219 235 209 168 171 194 191 168 110 178 157 240 205 231 236 252 285 319 340 350 358 355 354 351 355 357 358 2 4 7 5 3 2
213 272 242 214 235 240 287 251 262 251 233 235 229 197 190 183 191 183 186 162 173 270 274 220 265 261 279 302 328 338 346 348 348 346 346 350 355 357 1 3 4 2 359
223 241 258 207 205 237 250 236 268 260 240 237 236 217 202 164 242 221 222 179 173 160 243 292 271 275 268 297 317 328 334 337 340 339 340 344 348 353 356 358 1 1 359
204 230 251 221 230 226 242 258 254 258 267 263 249 230 219 199 218 221 209 229 197 181 186 214 264 261 280 295 309 320 326 329 331 338 342 338 341 346 349 354 357 359 0
235 235 237 238 236 243 245 231 257 233 262 273 284 255 242 238 222 207 247 238 230 240 249 241 250 274 283 292 305 314 319 323 330 334 336 334 334 337 343 348 352 355 358
241 242 245 241 241 241 251 244 234 245 257 258 257 272 255 236 234 240 237 233 234 236 246 258 265 274 283 292 300 307 312 318 323 323 329 331 328 329 339 341 345 352 355
239 241 246 243 241 243 247 251 244 243 255 267 272 262 266 266 249 244 244 244 244 246 249 255 262 274 281 290 298 305 310 313 319 325 325 324 324 322 327 336 336 348 353
242 242 247 249 246 245 248 247 246 242 253 255 259 262 253 259 266 262 263 254 252 256 261 264 266 272 279 285 293 300 305 309 312 314 316 320 319 316 318 326 332 343 350
242 246 246 249 253 252 248 251 249 248 242 245 253 257 257 252 257 265 271 272 267 262 264 267 268 271 275 277 289 297 301 305 309 312 313 316 315 316 313 313 329 334 345
258 251 252 255 255 256 258 259 262 263 260 255 252 256 259 258 253 257 261 267 271 269 272 275 275 275 280 285 289 292 298 300 303 308 311 312 312 315 311 305 322 328 337
254 251 257 255 260 262 262 261 258 259 262 265 263 262 263 265 264 259 259 261 265 272 275 274 276 279 281 286 288 291 293 296 302 307 306 310 312 313 313 310 315 321 324
253 254 258 254 259 259 259 260 261 260 258 259 264 266 265 265 267 274 273 272 271 271 274 277 279 279 281 282 286 288 291 297 300 301 304 307 313 314 315 311 308 314 320
250 254 254 253 256 258 258 256 255 258 259 260 262 263 265 267 266 266 272 275 276 277 279 276 275 279 280 282 285 286 291 295 299 303 305 305 305 302 306 309 303 302 311
247 250 252 254 253 253 255 255 253 253 257 260 260 261 263 265 267 266 264 267 271 276 280 279 282 280 278 278 281 286 290 291 292 293 302 299 301 304 302 306 302 300 300
Height
3235 3236 3238 3237 3240 3240 3241 3241 3240 3242 3241 3243 3243 3241 3241 3241 3242 3242 3242 3242 3241 3241 3240 3240 3240 3239 3239 3238 3238 3238 3238 3238 3237 3236 3234 3232 3230 3227 3225 3222 3219 3215 3211
3237 3239 3239 3240 3241 3240 3242 3243 3238 3243 3243 3243 3242 3242 3243 3243 3243 3243 3243 3243 3243 3243 3243 3243 3243 3243 3242 3242 3242 3242 3242 3241 3240 3238 3236 3234 3231 3228 3226 3223 3220 3216 3213
3239 3240 3242 3238 3243 3243 3244 3245 3245 3245 3246 3246 3245 3245 3245 3245 3245 3245 3244 3244 3246 3246 3246 3246 3246 3246 3246 3246 3246 3246 3245 3244 3242 3240 3237 3235 3233 3230 3227 3225 3222 3218 3214
3241 3241 3244 3244 3244 3245 3245 3246 3247 3247 3248 3247 3248 3248 3247 3247 3247 3246 3247 3247 3248 3249 3249 3249 3249 3250 3249 3249 3249 3249 3248 3246 3243 3241 3239 3237 3234 3232 3229 3225 3222 3219 3215
3242 3243 3243 3245 3245 3246 3246 3246 3247 3249 3249 3250 3251 3251 3250 3251 3249 3250 3249 3250 3251 3251 3251 3252 3252 3252 3252 3253 3253 3251 3250 3248 3246 3244 3241 3238 3235 3233 3230 3226 3222 3218 3215
3243 3243 3244 3246 3243 3246 3246 3248 3248 3246 3248 3251 3250 3254 3254 3254 3253 3254 3253 3253 3254 3254 3254 3255 3255 3255 3256 3256 3256 3254 3252 3250 3248 3246 3243 3240 3237 3233 3229 3225 3221 3217 3214
3242 3244 3245 3247 3244 3246 3244 3248 3249 3251 3251 3252 3253 3258 3255 3252 3254 3256 3257 3258 3256 3257 3257 3258 3258 3259 3259 3259 3258 3256 3254 3252 3250 3248 3245 3242 3238 3234 3230 3225 3221 3217 3213
3242 3243 3244 3245 3246 3244 3248 3248 3247 3251 3253 3252 3252 3255 3258 3260 3260 3261 3258 3258 3257 3259 3259 3260 3261 3262 3262 3261 3259 3259 3256 3254 3252 3249 3246 3243 3240 3235 3231 3226 3221 3217 3214
3243 3243 3244 3244 3248 3248 3247 3248 3250 3251 3253 3254 3254 3256 3257 3262 3261 3261 3260 3260 3261 3261 3262 3263 3264 3264 3264 3263 3261 3260 3258 3256 3253 3251 3247 3244 3240 3236 3231 3226 3222 3218 3216
3244 3244 3245 3246 3247 3246 3246 3248 3250 3251 3253 3256 3257 3256 3259 3261 3259 3266 3263 3262 3263 3263 3264 3265 3265 3265 3265 3264 3263 3262 3260 3257 3254 3252 3249 3245 3242 3238 3233 3228 3223 3219 3216
3244 3245 3245 3245 3247 3247 3248 3247 3248 3252 3252 3255 3259 3260 3261 3262 3264 3265 3268 3265 3265 3265 3266 3266 3267 3267 3267 3266 3265 3263 3261 3258 3255 3254 3251 3248 3243 3239 3234 3229 3223 3220 3216
3245 3245 3246 3246 3247 3247 3248 3248 3249 3250 3252 3253 3254 3258 3260 3260 3264 3267 3269 3268 3269 3268 3268 3268 3268 3267 3267 3267 3266 3265 3263 3260 3257 3255 3252 3249 3244 3240 3235 3230 3225 3221 3217
3245 3246 3246 3247 3247 3247 3248 3248 3248 3249 3251 3252 3254 3256 3258 3261 3262 3264 3266 3269 3270 3270 3270 3268 3268 3268 3268 3268 3266 3265 3264 3261 3258 3255 3253 3250 3246 3241 3236 3231 3226 3221 3218
3244 3245 3247 3246 3247 3247 3247 3248 3249 3249 3250 3251 3253 3255 3256 3261 3263 3264 3264 3267 3270 3271 3269 3268 3269 3268 3268 3267 3267 3265 3263 3262 3259 3255 3253 3249 3246 3241 3236 3231 3227 3222 3218
3242 3243 3246 3245 3246 3247 3247 3248 3249 3250 3250 3250 3251 3253 3255 3257 3262 3263 3263 3264 3265 3268 3273 3269 3269 3266 3267 3266 3266 3265 3263 3261 3258 3256 3252 3249 3246 3241 3237 3233 3228 3224 3219
3242 3239 3243 3243 3244 3246 3247 3248 3248 3249 3250 3250 3250 3251 3253 3254 3260 3260 3261 3263 3264 3264 3266 3268 3267 3265 3265 3265 3264 3263 3262 3260 3257 3254 3251 3248 3245 3241 3237 3233 3229 3224 3220
3239 3242 3241 3242 3243 3244 3245 3247 3248 3248 3249 3249 3250 3250 3251 3252 3255 3258 3260 3260 3261 3262 3262 3263 3262 3263 3263 3263 3263 3261 3260 3258 3254 3252 3250 3247 3244 3241 3237 3233 3229 3224 3220
3236 3238 3239 3240 3241 3242 3243 3244 3246 3247 3248 3248 3248 3249 3249 3250 3251 3253 3255 3255 3256 3257 3258 3260 3261 3261 3261 3260 3260 3259 3258 3256 3254 3251 3249 3246 3242 3239 3237 3233 3229 3225 3220
3233 3235 3236 3237 3238 3240 3241 3241 3243 3244 3245 3246 3246 3247 3247 3248 3249 3250 3251 3252 3254 3255 3256 3257 3258 3258 3258 3257 3256 3256 3254 3253 3252 3248 3246 3242 3240 3236 3234 3232 3228 3225 3221
3229 3231 3233 3235 3235 3236 3238 3238 3239 3241 3242 3242 3244 3245 3245 3246 3247 3248 3249 3250 3251 3252 3253 3254 3254 3254 3254 3254 3253 3252 3251 3249 3248 3247 3244 3240 3237 3234 3231 3230 3226 3223 3221
3226 3228 3229 3230 3232 3233 3234 3236 3237 3237 3239 3239 3240 3241 3242 3243 3244 3245 3246 3247 3248 3248 3249 3250 3250 3251 3251 3250 3250 3248 3247 3245 3245 3242 3241 3238 3235 3230 3228 3226 3225 3222 3219
3221 3223 3224 3226 3227 3229 3232 3233 3234 3235 3236 3236 3236 3237 3239 3239 3240 3241 3243 3243 3245 3245 3246 3246 3246 3246 3247 3246 3245 3244 3243 3241 3240 3239 3235 3235 3232 3229 3225 3223 3222 3219 3218
3215 3217 3219 3220 3223 3225 3227 3229 3230 3231 3231 3232 3234 3235 3234 3235 3236 3238 3239 3239 3239 3240 3241 3241 3241 3242 3241 3241 3239 3239 3238 3236 3235 3234 3231 3229 3228 3225 3222 3220 3220 3217 3214
3209 3211 3213 3214 3216 3218 3221 3223 3225 3225 3225 3227 3228 3229 3230 3231 3233 3233 3234 3234 3235 3235 3235 3236 3236 3236 3236 3236 3235 3233 3232 3231 3230 3229 3227 3225 3223 3221 3219 3215 3214 3215 3213
3201 3203 3205 3207 3209 3212 3214 3217 3218 3218 3218 3219 3222 3223 3224 3225 3228 3229 3227 3227 3228 3229 3229 3229 3230 3230 3230 3229 3228 3227 3227 3225 3224 3224 3223 3220 3219 3217 3215 3212 3211 3209 3210
3192 3195 3198 3200 3200 3203 3206 3208 3210 3210 3209 3211 3213 3214 3216 3217 3220 3221 3221 3221 3220 3223 3222 3223 3221 3221 3221 3221 3221 3220 3221 3219 3219 3218 3220 3216 3213 3212 3211 3209 3205 3204 3204